User: anonymous   Login
Location: Asheville, NC
(35.6000°N, 82.5500°W)
Time: 15:56:30
(UTC-05:00)
Language:

SPROUT - Orbit

View from above orbital plane
View from above orbital plane
View from above satellite
View from above satellite

Ground track
Ground track

The orbit data is extracted from the following two-line orbital elements,

1 39770U 14029E   18020.52878346  .00000676  00000-0  82285-4 0  9994
2 39770  97.8754 122.8833 0008494 343.8411  16.2541 14.86637274198425
Epoch (UTC): 20 January 2018 12:41:26
Eccentricity: 0.0008494
inclination: 97.8754°
perigee height: 602 km
apogee height: 614 km
right ascension of ascending node: 122.8833°
argument of perigee: 343.8411°
revolutions per day: 14.86637274
mean anomaly at epoch: 16.2541°
orbit number at epoch: 19842

The dashed part of the orbit path shows where the satellite is in the earth's shadow,  

DLR